COSMOS 1275 DEB

Satellite information

Favourite Embed

Satellite Type and Status

DEBRISIN ORBIT

Key statistics

Satellite COSMOS 1275 DEB at a glance.

Uptime

16263

Days in orbit

Revolutions

≈ 13.7

Per day

Orbit

LEO

Low Earth Orbit

Inclination

83.0

Latest

Satellite identification and parameters

Extended collection of information and parameters for COSMOS 1275 DEB.

Object identification

Identified? True

Debris? True

Object name: COSMOS 1275 DEB

International designator: 1981-053TD

Object number (NORAD): 42189

Object ID (CCSDS): 42189

Country: COMMONWEALTH OF INDEPENDENT STATES (CIS)

Current information (Y/N): Y

RCS size: SMALL

Orbital parameters

Period: 104.972 minutes

Inclination: 83.0187 deg

SMA: 7371.26 km

Apoapsis: 1084.732 km

Periapsis: 901.517 km

RAAN: 70.1586 deg

Eccentricy: 0.0124277

Argument of periapsis: 208.4545 deg

Mean anomaly: 150.9787 deg

Mean motion: 13.71798119 rev/day

Mean motion (dot): 0.00001675 rev/day2

B* drag term: 0.0017374 1/REarth

Two-line elements (TLE)

Creation date: Dec. 10, 2025, 10:36 p.m.

Reference frame: TEME

Reference center: EARTH

Epoch: Dec. 10, 2025, 1:10 p.m. UTC

TLE line 0: 0 COSMOS 1275 DEB

TLE line 1: 1 42189U 81053TD 25344.54895909 .00001675 00000-0 17374-2 0 9991

TLE line 2: 2 42189 83.0187 70.1586 0124277 208.4545 150.9787 13.71798119583113

Live tracking on map

Real-time ground track for satellite COSMOS 1275 DEB.

In-orbit conjunctions

A list of the most updated potential collisions computed for object COSMOS 1275 DEB.

Target Orbit TCA Probability of collision Miss distance Type
KOMPASS SSO 2025-01-28 11:23:50 0.0002408636 193.0 (m) PAYLOAD

Associated space launch

Navigation satellite providing location information for the Tsiklon-B navigation system

COSMOS 1275 DEB was lifted into orbit during the mission ‘Kosmos-3M | Parus 27’, on board a Kosmos-3M space rocket.

The launch took place on June 4, 1981, 3:41 p.m. from 132/2.

For more information about the launch, click the button.

Launch to space Kosmos-3M | Parus 27
Kosmos-3M | Parus 27

Agency: N/A

Status: Launch Successful

Launch date: June 4, 1981, 3:41 p.m. UTC

Rocket: Kosmos-3M

Launch pad: 132/2

Location: Plesetsk Cosmodrome, Russian Federation

...

Latest news about this satellite

There are no fresh news available about this satellite. Check back as we update our databases every day.


Newsletter sign-up

Weekly statistics, charts and insights to help you stay on top of the space industry.